Location: Brabourne
(51.1333°N, 1.0000°E)
Time: 11:49:25
(UTC+00:00)

IRS-1D - Pass Details

Date: 27 October 2021
Orbit: 739 x 817 km, 98.6° (Epoch: 30 November)

Event Time Altitude Azimuth Distance (km) Brightness Sun altitude
Rises 02:12:16 0° 18° (NNE) 3,259 7.4 -40.9°
Reaches altitude 10° 02:14:40 10° 23° (NNE) 2,316 6.5 -40.6°
Enters shadow 02:15:36 15° 26° (NNE) 1,962 6.1 -40.4°
